| time (UTC) | temp C | wind direction | speed KPH | gust KPH | rain 1hr cm | rain 24hr cm | rain mn cm | humidity % | barometer mb |
| 20260502123011 | 11 | 264 | 0.0 | 0.0 | 0.00 | 0.00 | 0.00 | 90 | 1021.0 |
| 20260502121510 | -17 | 0.0 | 0.0 | 0.00 | 0.00 | 0.00 | 1020.6 | ||
| 20260502114554 | -17 | 0.0 | 0.0 | 0.00 | 0.00 | 0.00 | 1020.0 | ||
| 20260502113050 | -17 | 0.0 | 0.0 | 0.00 | 0.00 | 0.00 | 1019.9 | ||
| 20260502111550 | -17 | 0.0 | 0.0 | 0.00 | 0.00 | 0.00 | 1019.7 | ||
| 20260502110041 | -17 | 0.0 | 0.0 | 0.00 | 0.00 | 0.00 | 1019.6 | ||
| 20260502104536 | -17 | 0.0 | 0.0 | 0.00 | 0.00 | 0.00 | 1019.8 | ||
| 20260502103035 | -17 | 0.0 | 0.0 | 0.00 | 0.00 | 0.00 | 1019.5 | ||
| 20260502101553 | 8 | 228 | 0.0 | 0.0 | 0.00 | 0.00 | 0.00 | 93 | 1019.5 |
| 20260502091524 | 10 | 229 | 0.0 | 0.0 | 0.00 | 0.00 | 0.00 | 91 | 1019.3 |
| 20260502071509 | 10 | 95 | 0.0 | 0.0 | 0.00 | 0.00 | 0.00 | 90 | 1019.2 |
| 20260502070008 | 10 | 95 | 0.0 | 0.0 | 0.00 | 0.00 | 0.00 | 89 | 1019.2 |
| 20260502064515 | 10 | 95 | 0.0 | 0.0 | 0.00 | 0.00 | 0.00 | 89 | 1019.4 |
| 20260502063008 | 10 | 95 | 0.0 | 0.0 | 0.00 | 0.00 | 0.00 | 88 | 1019.4 |
| 20260502061502 | 11 | 95 | 0.0 | 0.0 | 0.00 | 0.00 | 0.00 | 88 | 1019.4 |
| 20260502060101 | 11 | 95 | 0.0 | 0.0 | 0.00 | 0.00 | 0.00 | 89 | 1019.1 |
| 20260502060003 | 11 | 95 | 0.0 | 0.0 | 0.00 | 0.00 | 0.00 | 89 | 1019.2 |
| 20260502050050 | 11 | 95 | 0.0 | 0.0 | 0.00 | 0.00 | 0.00 | 83 | 1019.2 |
| 20260502044548 | 12 | 95 | 0.0 | 0.0 | 0.00 | 0.00 | 0.00 | 82 | 1019.1 |
| 20260502043047 | 12 | 95 | 0.0 | 0.0 | 0.00 | 0.00 | 0.00 | 82 | 1019.1 |
| 20260502041552 | 12 | 95 | 0.0 | 0.0 | 0.00 | 0.00 | 0.00 | 81 | 1018.9 |
| 20260502040042 | 12 | 95 | 0.0 | 0.0 | 0.00 | 0.00 | 0.00 | 78 | 1018.9 |
| 20260502034539 | 13 | 95 | 0.0 | 0.0 | 0.00 | 0.00 | 0.00 | 76 | 1019.1 |
| 20260502033040 | 13 | 95 | 0.0 | 0.0 | 0.00 | 0.00 | 0.00 | 73 | 1019.0 |
| 20260502031528 | 14 | 95 | 0.0 | 0.0 | 0.00 | 0.00 | 0.00 | 72 | 1018.7 |
| 20260502030028 | 14 | 95 | 0.0 | 0.0 | 0.00 | 0.00 | 0.00 | 76 | 1018.7 |
| 20260502014600 | 15 | 82 | 0.0 | 1.6 | 0.00 | 0.00 | 0.00 | 72 | 1017.6 |
| 20260502013101 | 15 | 98 | 0.0 | 0.0 | 0.00 | 0.00 | 0.00 | 71 | 1017.3 |
| 20260502011559 | 15 | 100 | 0.0 | 1.6 | 0.00 | 0.00 | 0.00 | 71 | 1017.0 |
| 20260502010059 | 15 | 113 | 0.0 | 0.0 | 0.00 | 0.00 | 0.00 | 71 | 1016.8 |
| 20260502000101 | 16 | 102 | 0.0 | 0.0 | 0.00 | 0.00 | 0.00 | 69 | 1016.3 |
| 20260501234554 | 16 | 105 | 0.0 | 3.2 | 0.00 | 0.00 | 0.00 | 69 | 1015.8 |
| 20260501233054 | 16 | 86 | 0.0 | 0.0 | 0.00 | 0.00 | 0.00 | 68 | 1015.9 |
| 20260501231622 | 16 | 94 | 0.0 | 1.6 | 0.00 | 0.00 | 0.00 | 69 | 1015.7 |
| 20260501230100 | 16 | 91 | 0.0 | 6.4 | 0.00 | 0.00 | 0.00 | 68 | 1015.5 |
| 20260501224601 | 16 | 25 | 0.0 | 4.8 | 0.00 | 0.00 | 0.00 | 68 | 1015.5 |
| 20260501223052 | 16 | 67 | 0.0 | 1.6 | 0.00 | 0.00 | 0.00 | 64 | 1015.4 |
| 20260501221605 | 16 | 74 | 0.0 | 3.2 | 0.00 | 0.00 | 0.00 | 61 | 1015.6 |
| 20260501220050 | 16 | 61 | 0.0 | 9.7 | 0.00 | 0.00 | 0.00 | 60 | 1015.4 |
| 20260501214549 | 16 | 295 | 0.0 | 3.2 | 0.00 | 0.00 | 0.00 | 59 | 1015.4 |
| 20260501213052 | 16 | 79 | 0.0 | 9.7 | 0.00 | 0.00 | 0.00 | 58 | 1015.5 |
| 20260501211603 | 17 | 47 | 0.0 | 12.9 | 0.00 | 0.00 | 0.00 | 57 | 1015.5 |
| 20260501210050 | 17 | 38 | 1.6 | 16.1 | 0.00 | 0.00 | 0.00 | 57 | 1015.4 |
| 20260501204537 | 17 | 7 | 3.2 | 14.5 | 0.00 | 0.00 | 0.00 | 52 | 1015.7 |
| 20260501203136 | 17 | 85 | 0.0 | 14.5 | 0.00 | 0.00 | 0.00 | 54 | 1016.0 |
| 20260501194528 | 17 | 58 | 0.0 | 9.7 | 0.00 | 0.00 | 0.00 | 55 | 1015.6 |
| 20260501193040 | 17 | 49 | 0.0 | 9.7 | 0.00 | 0.00 | 0.00 | 55 | 1015.5 |
| 20260501191526 | 17 | 68 | 4.8 | 12.9 | 0.00 | 0.00 | 0.00 | 56 | 1015.6 |
| 20260501190030 | 17 | 75 | 3.2 | 14.5 | 0.00 | 0.00 | 0.00 | 57 | 1015.7 |
| 20260501184526 | 17 | 76 | 3.2 | 14.5 | 0.00 | 0.00 | 0.00 | 58 | 1015.6 |
| 20260501183024 | 17 | 56 | 0.0 | 6.4 | 0.00 | 0.00 | 0.00 | 59 | 1016.1 |
| 20260501181528 | 17 | 61 | 1.6 | 14.5 | 0.00 | 0.00 | 0.00 | 58 | 1016.5 |
| 20260501180022 | 17 | 86 | 3.2 | 12.9 | 0.00 | 0.00 | 0.00 | 59 | 1016.6 |
| 20260501174520 | 17 | 102 | 3.2 | 17.7 | 0.00 | 0.10 | 0.00 | 59 | 1016.9 |
| 20260501173019 | 17 | 51 | 1.6 | 16.1 | 0.00 | 0.10 | 0.00 | 59 | 1016.8 |
| 20260501171520 | 16 | 115 | 1.6 | 11.3 | 0.00 | 0.10 | 0.00 | 63 | 1017.2 |
| 20260501170016 | 16 | 107 | 4.8 | 12.9 | 0.00 | 0.10 | 0.00 | 63 | 1017.3 |
| 20260501164511 | 15 | 42 | 3.2 | 17.7 | 0.00 | 0.10 | 0.00 | 66 | 1017.4 |
| 20260501163010 | 15 | 77 | 0.0 | 12.9 | 0.00 | 0.10 | 0.00 | 67 | 1017.5 |
| 20260501161509 | 14 | 120 | 0.0 | 9.7 | 0.00 | 0.10 | 0.00 | 69 | 1017.5 |
| 20260501160011 | 14 | 97 | 3.2 | 11.3 | 0.00 | 0.10 | 0.00 | 66 | 1017.4 |